Theta_e
339 339 340 346 346 346 347 346 347 347 347 345 345 344 345 345 345 344 346 349 347 348 348 348 348 348 348 348 347 346 345 344 342 341 340 340 341 340 341 340 342 342 342 341 340 341 342 341 342 341 341 342 342 342 341 341 341 341 338 337 336 336 337 336 336 335 337 337 335 335 335 337 338 337 336 336 334 333 334 333 334 331 329 329 334
340 339 342 344 347 347 347 347 347 347 346 346 345 344 343 342 342 342 342 346 348 348 348 348 348 348 348 348 347 346 346 345 343 342 341 341 341 340 341 341 342 341 340 340 340 340 339 340 341 341 342 341 341 341 341 341 341 340 337 336 335 334 334 335 335 335 336 337 337 338 336 335 337 337 337 336 334 334 334 332 333 330 329 332 332
340 341 343 345 347 346 346 346 347 347 346 345 345 344 343 342 342 342 341 341 345 348 347 347 347 347 346 346 345 345 345 346 344 343 342 341 341 341 342 342 340 340 339 338 338 338 339 339 340 340 340 341 341 340 340 340 340 340 337 335 335 334 333 334 335 335 336 336 334 334 334 337 337 336 336 336 335 334 333 331 331 332 329 333 330
341 343 343 345 347 347 347 347 346 346 346 344 344 343 342 341 341 341 340 340 340 345 345 345 346 346 346 345 345 346 346 345 344 341 340 339 338 338 337 336 337 338 338 339 338 338 338 339 339 339 340 340 340 340 340 339 338 338 338 336 335 333 333 333 335 335 335 335 335 332 329 323 330 335 335 336 335 334 334 331 331 330 330 331 332
342 343 343 343 344 346 347 347 347 346 345 345 343 342 342 342 341 339 340 340 339 340 342 343 343 344 344 344 343 346 347 346 343 341 339 338 338 338 338 339 339 339 339 340 340 339 338 338 339 338 338 338 338 339 338 337 336 337 337 337 335 334 333 334 334 335 336 336 335 330 324 324 325 335 336 336 335 335 335 333 332 331 329 330 333
343 343 343 342 342 344 347 347 346 346 345 344 342 341 343 341 339 339 339 338 338 339 340 342 341 341 342 343 343 343 344 344 344 342 340 339 338 337 338 339 339 340 339 339 339 338 337 338 338 338 338 338 338 339 338 337 336 336 336 336 335 334 334 334 335 335 335 334 332 326 325 326 327 331 336 336 335 335 334 333 332 331 330 332 332
342 343 343 342 341 343 346 347 346 346 345 343 342 342 342 340 340 341 340 340 340 340 341 342 342 342 343 343 343 343 342 342 341 340 341 341 340 341 341 341 340 339 339 339 338 339 338 338 338 337 337 338 338 338 338 338 337 337 337 336 335 335 335 335 335 334 333 330 327 326 326 328 330 329 337 337 336 335 334 335 334 333 331 333 334
343 343 342 342 341 343 346 347 346 345 344 343 343 343 342 340 341 341 341 341 341 341 341 341 341 341 342 343 342 340 340 340 342 343 344 344 343 341 340 338 337 338 338 338 339 339 339 339 338 337 338 338 338 338 337 337 336 335 336 337 337 336 336 335 333 331 331 324 327 329 329 329 330 331 336 337 336 336 335 335 335 334 334 335 335
342 342 341 340 340 343 345 346 346 345 344 343 343 342 342 342 342 343 342 342 341 341 340 341 341 342 342 342 341 341 342 342 344 345 345 343 342 340 339 337 337 337 337 337 338 339 339 339 338 337 338 338 338 338 337 336 336 335 335 335 335 334 333 332 330 328 324 321 323 326 331 330 329 332 338 338 338 338 338 338 339 338 335 336 333
341 340 340 339 340 342 345 346 347 346 345 344 343 342 343 342 343 342 342 340 340 340 340 341 340 341 340 339 339 340 342 342 343 344 344 343 343 341 339 339 338 337 338 337 338 338 337 337 337 337 337 338 337 337 336 336 336 336 336 335 334 333 331 329 328 326 318 318 320 321 328 335 329 330 337 339 339 339 338 337 337 338 337 337 333
340 340 339 340 340 342 346 347 347 346 345 344 344 343 342 342 341 339 338 339 339 339 340 341 340 339 339 339 340 342 342 341 341 342 343 343 343 341 340 339 338 338 339 339 338 338 338 337 337 336 336 337 336 336 336 336 336 336 336 335 334 332 330 328 324 316 316 316 318 320 325 333 327 330 339 339 339 339 338 337 336 336 337 336 337
339 340 340 340 344 341 346 346 346 346 343 344 344 342 341 341 340 338 338 337 338 338 339 339 340 340 340 340 340 340 340 341 342 342 342 342 342 341 341 341 339 337 336 336 336 337 337 337 336 336 336 336 335 336 336 336 335 336 335 333 332 331 329 327 319 317 315 315 317 321 320 325 327 333 339 340 339 338 337 337 337 337 337 337 337
339 340 340 340 340 341 344 345 345 345 343 343 342 341 340 340 338 337 337 338 338 339 340 341 342 341 341 340 340 340 342 342 341 341 341 341 341 341 341 339 337 337 338 338 337 337 336 336 336 335 335 335 335 335 335 334 335 335 334 334 332 330 327 325 317 317 317 316 319 318 320 323 327 335 337 339 339 338 338 337 337 337 336 336 336
339 340 340 339 339 345 340 342 344 344 344 343 343 341 340 339 338 337 337 339 340 341 342 342 341 340 339 339 339 339 340 341 341 340 340 341 341 340 340 339 339 339 338 337 336 336 336 336 335 335 334 334 333 334 334 334 333 333 333 332 331 329 327 325 323 315 316 317 320 321 319 324 329 334 336 338 338 338 337 336 336 335 335 336 336
338 340 341 341 341 339 341 339 341 342 342 342 343 342 340 339 339 342 342 342 343 342 341 340 339 338 337 337 337 337 338 338 340 340 340 340 340 339 339 339 338 337 337 337 337 336 335 335 334 334 334 333 333 332 332 332 332 332 333 332 330 328 324 317 317 314 316 319 317 319 319 322 337 334 336 337 338 337 336 336 336 335 336 337 337
339 340 341 341 339 337 337 341 336 337 339 340 340 341 342 342 342 342 342 341 341 341 340 339 338 337 336 335 336 336 337 338 338 339 339 339 338 339 338 337 337 336 336 336 336 335 335 334 334 333 333 333 332 332 333 333 332 332 331 330 329 328 324 320 315 313 314 318 317 319 320 323 337 334 338 337 337 336 335 336 336 337 336 337 337
339 340 340 340 339 336 335 336 335 333 333 335 337 340 342 343 342 341 341 341 340 339 339 338 337 336 336 336 336 338 337 337 337 337 338 338 338 337 336 336 336 335 336 335 335 335 335 333 333 333 333 333 332 332 332 332 332 332 331 329 327 326 324 321 316 313 314 318 318 320 321 325 334 335 337 337 336 335 334 336 337 336 336 336 336
338 340 339 340 338 335 334 333 333 333 332 333 334 338 339 341 340 340 341 340 340 340 339 338 338 338 339 338 338 339 338 337 338 338 337 337 338 338 336 335 335 335 334 335 335 334 334 334 333 332 333 332 332 332 332 332 332 332 332 328 325 325 324 321 313 313 315 321 317 320 321 332 333 337 337 336 335 336 336 336 336 336 335 336 336
337 338 339 339 337 334 334 332 330 331 331 332 334 335 335 337 338 338 338 338 339 339 339 337 338 337 335 334 334 334 332 332 334 335 335 335 334 335 336 336 334 334 333 333 333 333 332 332 332 332 332 332 332 332 333 333 331 332 331 327 324 322 322 318 313 312 314 319 320 320 322 334 333 336 336 335 335 335 336 337 335 335 334 335 335
336 337 337 338 337 333 334 333 330 330 331 331 332 333 333 332 334 335 335 336 336 336 335 333 332 330 329 328 327 326 325 325 325 326 329 331 331 328 333 335 334 334 333 333 333 332 331 331 332 332 332 332 333 332 330 332 332 331 330 326 322 321 314 313 312 312 313 317 321 319 329 335 334 335 336 335 334 335 335 335 333 334 335 334 335
334 335 336 337 335 332 333 332 330 330 330 331 331 331 332 331 331 331 332 332 333 333 332 327 325 324 323 322 323 323 324 325 325 325 324 323 323 326 332 334 333 333 332 332 331 332 331 331 331 331 331 334 325 322 321 326 327 329 327 321 318 313 312 312 311 313 313 315 319 320 332 334 334 334 335 336 334 335 334 332 332 333 334 334 334
332 333 336 337 335 333 333 331 329 329 330 330 331 332 331 332 331 330 329 329 328 328 328 327 326 322 319 321 322 322 323 324 325 327 326 326 325 323 325 331 332 332 332 332 332 331 332 331 331 331 332 331 324 314 313 317 322 324 321 317 312 311 310 311 311 311 313 315 319 325 333 332 334 335 333 332 333 334 333 331 331 331 333 333 332
330 332 334 336 336 333 331 329 329 329 329 330 332 332 333 333 333 332 329 326 328 326 325 325 321 320 320 320 321 321 321 323 324 324 325 321 323 321 323 326 327 326 327 330 332 332 332 332 332 332 332 324 318 314 313 312 312 317 315 313 311 311 311 311 311 312 313 314 315 328 332 331 331 334 331 329 329 331 331 330 329 330 332 331 329
329 331 333 336 336 333 331 329 328 328 329 330 331 332 332 333 333 333 331 328 325 323 323 319 319 318 318 318 320 320 321 322 323 324 323 321 320 319 319 320 320 320 319 318 319 321 325 327 326 326 321 315 312 312 312 311 311 309 310 310 310 310 311 310 311 311 312 315 316 326 329 331 330 331 328 327 331 331 330 329 330 330 329 329 328
330 332 333 334 335 334 332 329 328 328 328 329 330 330 330 331 331 331 331 330 326 323 321 318 317 318 316 316 318 319 320 321 321 321 319 319 318 318 317 318 317 315 314 314 312 312 314 312 312 311 310 311 312 314 311 313 312 311 311 310 310 311 312 313 311 310 311 313 315 323 326 329 330 330 328 328 328 329 328 328 328 328 327 326 326
329 329 331 333 335 334 332 330 328 328 328 329 330 329 329 329 329 329 330 329 328 325 322 318 316 316 316 315 318 319 319 320 318 317 317 317 317 316 316 316 315 313 313 312 311 311 311 310 309 311 313 312 314 317 315 315 318 314 311 311 310 313 314 311 310 311 310 311 312 320 325 327 328 328 328 328 328 325 326 326 326 327 326 325 324
323 327 330 333 335 335 333 330 328 328 327 328 329 328 328 328 328 328 328 328 328 325 323 320 318 317 316 315 319 318 319 319 317 315 315 315 316 315 315 315 314 313 314 312 310 311 312 311 310 310 313 314 315 318 320 321 319 315 315 315 313 315 316 313 311 309 308 309 311 318 322 325 326 326 327 328 328 327 328 327 327 327 326 324 323
320 325 328 331 332 334 334 331 329 328 327 327 327 327 327 326 326 325 326 326 325 325 324 322 319 318 317 317 317 318 318 318 317 314 314 313 314 315 314 314 314 313 314 313 311 310 312 311 310 310 314 314 316 317 316 317 318 315 316 316 315 312 314 313 311 307 307 308 308 315 320 324 325 325 326 327 328 327 327 328 327 326 326 324 323
319 321 325 329 332 333 333 332 329 327 327 327 326 326 325 324 324 324 325 324 325 325 323 321 319 318 317 318 316 316 315 317 316 315 311 313 313 313 314 314 312 313 313 314 312 312 312 311 312 313 313 314 313 316 314 316 317 313 313 315 316 314 315 312 308 308 307 307 307 312 318 322 324 325 325 326 327 327 328 326 326 325 325 323 322
321 321 321 326 330 332 332 332 330 329 328 327 326 325 324 323 322 323 324 321 323 323 321 321 321 319 318 318 318 319 317 317 315 312 312 313 313 312 313 313 312 313 312 314 314 311 312 310 311 311 311 311 313 313 314 316 315 315 314 312 313 316 313 310 308 307 307 306 306 309 316 318 322 325 325 326 326 326 326 325 325 325 324 323 322
320 320 320 323 326 328 329 331 331 328 328 327 325 325 323 323 322 322 321 321 322 321 321 321 321 320 320 318 318 318 318 317 316 315 313 314 314 314 314 314 313 314 314 315 311 313 312 313 315 314 313 312 313 310 313 315 316 317 314 311 311 316 313 311 310 307 307 306 304 305 308 315 319 322 326 325 325 326 326 324 324 323 323 322 322
320 320 321 321 323 326 327 329 330 329 327 327 325 324 323 323 322 322 321 321 321 320 320 320 320 320 319 318 318 318 317 317 317 315 315 314 314 314 314 313 315 315 314 315 313 313 314 315 313 312 311 311 309 311 311 313 316 318 315 314 312 316 315 313 311 309 307 305 303 302 304 305 313 316 319 325 324 325 325 324 323 323 322 322 322
321 322 322 321 321 324 325 327 330 328 327 327 325 324 324 323 322 322 321 320 320 319 319 319 320 320 319 319 318 318 316 318 317 316 315 316 316 314 313 314 315 316 314 314 313 311 311 311 313 310 311 312 313 313 312 310 312 313 310 310 312 316 317 315 313 311 306 305 302 301 300 300 300 309 313 318 325 324 323 322 321 321 321 320 320
320 321 321 321 322 323 324 325 328 328 327 327 325 324 323 323 323 323 321 320 319 319 318 319 319 319 319 318 319 318 317 317 317 316 316 316 316 315 315 315 315 314 314 314 314 312 313 312 315 311 314 312 313 312 312 310 309 309 311 313 316 316 315 314 313 312 306 304 302 299 298 298 298 300 302 312 318 322 321 322 321 321 320 320 319
319 320 321 322 322 323 324 324 325 327 326 326 324 323 322 322 322 322 322 321 320 319 319 318 318 318 319 319 319 319 318 318 317 317 316 315 315 315 315 316 316 315 313 314 315 314 314 315 312 314 310 311 310 308 311 308 312 314 314 314 314 312 311 313 311 308 306 303 301 299 298 298 298 299 300 300 309 316 318 317 317 317 317 317 317
320 320 321 322 322 322 322 323 323 325 325 325 324 323 322 321 321 320 321 321 320 319 319 319 318 318 318 319 319 319 318 318 317 317 317 316 316 316 316 316 315 314 315 314 314 316 314 315 313 315 312 310 309 311 308 308 308 312 315 316 314 312 310 308 307 304 302 302 301 298 298 297 296 297 301 300 301 309 315 315 314 313 312 312 312
322 320 321 321 321 322 321 322 322 323 324 324 323 322 321 321 321 321 321 320 320 320 319 319 318 318 318 319 319 319 318 319 318 317 317 316 316 316 316 316 315 315 314 315 315 316 316 316 313 313 313 310 308 309 310 308 311 311 313 315 314 311 309 307 305 303 301 301 298 297 297 297 297 303 296 298 299 301 310 313 313 311 309 308 309
322 321 321 321 321 322 322 322 322 323 324 324 323 322 321 320 320 320 319 320 320 320 319 319 319 318 318 318 319 319 318 319 318 318 318 318 317 316 316 316 315 315 316 315 316 316 314 315 315 310 312 311 309 311 310 307 308 309 310 312 310 309 307 305 304 301 299 298 297 298 298 296 296 296 296 296 296 297 298 305 309 309 307 305 305
322 322 321 321 322 322 321 321 321 322 323 323 322 321 321 320 319 319 319 319 320 319 319 319 320 319 319 319 319 319 318 318 319 318 318 318 316 316 317 317 316 316 316 315 315 314 314 312 314 310 307 310 312 312 312 309 307 308 309 309 308 305 302 301 300 298 297 297 298 298 296 294 295 295 296 295 293 293 295 296 297 297 300 303 303
322 322 320 321 321 321 321 322 321 322 322 322 322 321 320 319 319 317 317 318 319 319 319 320 320 319 320 319 319 319 318 318 319 319 319 318 317 317 317 317 315 315 315 314 314 313 313 311 310 311 309 309 309 309 309 308 305 306 307 308 304 303 302 300 298 297 296 296 297 295 296 293 294 294 295 293 292 292 294 295 296 294 295 298 301
323 322 321 320 321 321 320 320 321 322 321 321 321 320 319 318 318 319 319 319 319 320 319 318 319 320 320 320 319 319 318 318 317 318 319 318 318 317 317 317 316 316 316 316 316 315 314 314 313 309 311 309 310 308 308 308 309 306 306 303 306 306 304 301 298 296 295 295 294 294 293 294 292 294 294 292 292 291 292 294 293 292 291 288 292
323 323 321 321 321 321 321 321 321 321 322 322 321 321 321 321 320 320 320 320 319 318 319 319 319 319 319 319 319 319 319 319 317 318 319 319 319 318 317 318 317 316 316 317 315 312 313 311 311 310 311 312 312 310 310 311 305 304 304 303 305 307 305 300 297 296 296 294 293 293 292 294 293 293 292 293 291 291 292 293 293 292 290 288 288
324 323 323 322 321 321 321 321 322 321 322 322 322 321 322 322 322 320 321 319 320 320 320 319 319 319 319 319 319 320 320 320 319 318 319 320 320 319 318 318 317 317 315 314 314 313 313 313 313 315 311 310 310 308 310 312 307 300 301 305 303 304 306 303 301 298 297 294 291 291 292 292 293 292 293 293 292 291 292 293 292 291 289 288 288
322 323 324 323 323 321 322 322 322 322 322 322 321 323 322 323 322 322 321 321 319 318 319 318 319 318 318 319 319 320 321 321 321 320 319 321 321 321 320 319 318 317 317 316 314 314 313 313 313 313 314 313 312 312 310 310 305 308 305 306 304 304 301 304 299 297 295 293 290 290 291 293 292 291 291 294 293 292 292 293 291 290 288 287 287
321 322 323 324 324 323 323 322 322 322 322 321 321 322 321 319 319 316 315 316 315 316 317 318 319 318 319 318 319 319 321 321 322 321 319 320 321 322 321 320 319 318 317 317 316 316 315 315 314 314 314 315 312 310 311 309 307 313 308 299 298 299 301 297 297 296 294 293 290 289 290 291 292 292 292 292 290 291 292 291 290 289 287 286 286
320 322 323 324 325 325 324 323 323 322 322 322 322 321 320 320 318 318 316 316 317 316 316 317 318 318 319 320 319 319 319 321 322 322 321 320 321 322 322 321 320 318 317 318 318 316 315 314 315 315 314 314 316 313 313 308 308 310 309 305 306 303 300 295 298 297 295 290 288 289 289 290 290 291 290 290 289 290 291 291 289 288 287 286 286
320 322 323 324 325 325 325 324 323 323 322 322 321 320 320 320 320 319 319 318 318 318 319 319 319 319 319 318 319 319 319 319 321 322 322 321 321 321 322 322 321 320 317 318 317 317 316 316 315 315 316 315 314 313 313 313 309 310 308 304 301 294 299 300 299 290 291 294 291 289 290 289 288 289 290 290 289 290 289 289 288 287 286 286 285
320 321 322 323 323 324 325 325 325 323 323 322 321 321 320 320 320 320 320 320 319 319 319 319 319 318 318 319 319 319 319 319 319 321 322 321 320 321 321 321 321 321 318 318 319 318 317 316 315 316 316 316 315 315 312 312 312 312 309 307 303 297 297 295 296 300 293 288 292 291 288 288 289 288 290 290 288 289 290 288 287 285 285 285 285
319 320 321 322 323 324 324 325 325 324 323 322 321 321 320 321 320 320 319 320 321 320 318 317 318 317 317 318 318 319 318 318 319 320 321 322 319 320 321 321 321 321 317 319 319 318 317 317 315 314 315 315 316 316 315 313 313 314 308 307 303 302 297 297 294 294 291 289 289 288 286 288 288 287 287 288 288 288 290 288 287 285 286 285 284
319 320 321 322 322 323 323 323 323 324 324 323 321 321 321 320 320 320 320 320 319 319 317 317 316 317 317 318 318 318 319 319 319 319 320 321 321 320 320 321 321 321 316 319 319 318 318 318 317 317 316 316 316 315 316 315 314 314 313 311 308 302 300 298 295 295 292 291 291 288 286 287 286 287 287 287 287 287 288 288 287 285 284 284 284
318 320 320 321 322 322 322 322 323 324 323 323 322 322 321 321 321 321 320 320 320 320 319 319 318 316 317 318 318 318 319 320 319 319 319 320 321 320 320 321 321 320 317 318 318 319 318 318 318 317 316 317 316 315 313 313 312 312 311 311 311 309 308 304 302 294 296 292 289 289 287 287 286 285 287 287 286 286 287 287 285 284 284 284 284
Wind_Speed
2 6 3 8 11 13 11 9 10 11 11 10 9 8 8 9 9 8 9 13 11 13 14 14 14 15 15 16 15 15 15 16 16 15 14 14 15 14 15 15 16 16 15 15 13 13 13 14 14 15 16 15 16 16 16 15 14 16 17 17 17 16 15 15 15 15 15 14 15 15 15 14 15 15 16 16 15 13 11 13 8 3 6 9 13
6 4 4 5 11 11 11 11 12 11 11 11 10 8 8 7 8 8 7 9 12 12 13 13 14 14 14 15 15 14 15 16 16 16 15 15 15 15 15 15 15 15 15 13 14 13 13 13 14 15 15 15 16 16 16 16 15 16 17 17 16 16 15 14 14 13 12 13 15 14 14 15 15 16 16 15 15 15 13 13 14 6 5 14 13
6 5 4 5 10 10 11 11 10 10 11 10 10 10 8 7 7 8 8 6 8 13 12 11 12 13 13 13 13 12 14 16 17 15 15 14 14 15 15 15 15 15 14 13 13 14 13 13 14 14 14 15 16 16 16 16 16 15 16 15 15 15 14 14 13 12 12 14 13 13 12 12 16 15 15 15 16 16 13 13 12 10 9 16 14
8 5 4 6 8 9 11 11 11 11 11 10 11 9 8 7 7 7 8 8 5 10 12 12 13 13 13 13 13 13 15 17 17 16 15 14 14 14 14 14 13 14 14 14 14 14 14 14 14 14 14 15 15 15 15 15 15 14 14 15 14 14 14 13 12 12 13 13 12 10 4 4 6 15 15 15 16 15 12 13 14 14 13 12 14
7 5 4 4 5 7 11 10 11 12 12 11 10 9 8 8 7 5 7 7 6 6 10 11 12 12 13 13 12 15 15 16 17 16 15 14 13 14 13 13 13 13 14 14 14 14 14 14 15 15 15 15 14 14 14 14 15 14 13 13 13 13 13 13 12 12 12 12 12 8 5 5 4 12 14 15 14 11 10 12 13 12 12 12 12
7 5 5 4 4 5 9 11 12 12 12 11 10 8 10 9 7 6 7 6 5 5 8 10 10 11 11 12 13 13 14 15 15 15 14 14 13 13 13 13 13 13 13 13 13 14 14 15 15 15 15 14 14 14 14 14 14 15 13 13 12 12 13 12 12 12 11 11 9 5 5 5 4 4 15 14 14 11 13 15 14 12 12 13 8
8 5 5 4 4 5 7 11 12 12 12 11 10 9 9 8 7 8 8 7 5 6 8 9 10 11 12 12 13 13 12 12 12 12 13 13 14 14 13 13 13 13 13 14 14 14 13 14 14 14 14 14 14 14 14 14 14 14 14 13 11 11 11 11 11 10 9 6 4 4 5 6 6 5 10 12 12 13 13 13 13 12 12 12 13
6 5 5 4 3 5 8 9 11 11 12 11 12 11 9 8 7 8 8 8 7 7 9 10 9 10 11 11 12 12 11 10 10 11 13 13 13 14 13 12 12 12 12 12 13 13 13 13 13 13 13 13 14 14 13 13 13 13 13 13 12 11 11 10 10 9 9 4 4 4 4 4 5 6 6 11 11 11 11 12 11 11 11 12 10
6 6 5 4 3 7 7 9 11 12 12 11 11 10 10 9 8 8 9 8 9 8 9 9 10 11 11 10 11 11 11 11 11 12 14 12 12 14 14 12 11 11 11 12 12 12 13 13 13 12 12 13 13 13 13 12 12 12 13 13 12 12 12 11 10 9 5 4 4 5 5 4 4 4 8 10 11 11 11 8 8 10 9 7 9
7 6 5 5 5 7 7 8 10 11 11 12 11 11 11 10 10 10 10 10 9 9 9 10 11 11 10 10 11 11 11 10 11 12 12 13 12 12 14 13 11 11 11 11 12 12 12 12 11 11 12 12 13 12 12 12 11 11 12 12 11 11 10 10 9 6 3 3 4 4 4 7 4 4 6 9 10 11 10 7 7 7 6 5 10
6 6 6 6 6 9 9 8 9 10 12 12 11 12 11 11 9 9 7 9 9 10 9 9 9 10 10 10 10 11 11 10 10 10 12 13 13 12 12 12 11 11 11 12 12 11 11 11 11 11 11 12 12 12 12 11 10 11 13 11 10 9 9 9 7 3 3 4 4 4 5 8 4 3 9 9 11 11 7 7 8 10 10 11 12
6 5 6 6 11 10 10 9 10 10 10 13 13 12 11 11 9 8 9 9 10 10 10 10 9 10 11 10 10 10 10 9 10 10 10 11 12 13 13 12 11 10 9 10 10 10 10 10 10 10 10 11 10 11 11 11 10 11 12 11 9 9 8 8 5 5 4 4 4 4 4 5 6 4 12 11 10 10 9 9 9 10 10 10 10
5 5 5 5 5 10 11 10 10 10 9 10 11 12 11 11 9 8 8 11 10 10 10 9 9 10 10 10 10 9 9 9 10 11 11 11 12 12 11 11 10 10 10 10 10 10 9 10 10 10 9 10 10 10 10 10 10 11 11 9 8 8 7 7 4 4 4 4 4 4 4 4 6 7 10 10 9 10 11 11 11 11 10 11 12
8 5 4 4 4 10 10 10 11 10 9 8 9 11 11 10 10 9 9 10 9 10 11 11 10 10 10 10 10 10 10 10 10 10 10 11 12 12 11 11 11 10 10 10 9 9 8 8 9 8 8 8 9 8 8 9 9 10 11 9 7 6 6 5 4 3 3 4 4 4 4 5 5 9 9 10 10 10 10 10 11 10 10 11 11
10 8 6 4 4 4 8 10 10 9 10 8 9 9 11 11 11 10 9 11 11 12 11 11 11 10 10 10 10 9 9 9 10 10 11 11 11 12 11 11 10 9 9 9 8 8 7 7 7 7 6 7 7 7 7 7 8 9 10 9 7 5 5 3 3 3 4 3 3 4 5 4 9 9 10 10 10 10 10 11 9 11 12 11 11
9 9 7 5 4 3 4 8 9 10 10 9 8 7 9 10 11 11 12 11 11 13 12 11 10 10 9 9 10 9 8 8 8 9 9 10 10 10 10 10 9 9 8 8 8 7 7 6 5 5 5 6 6 7 8 9 9 10 11 9 7 6 5 3 3 3 3 4 3 3 4 4 10 8 10 10 8 9 9 10 11 12 12 13 12
7 7 8 6 5 4 4 4 6 10 10 8 7 10 11 11 11 11 10 12 12 11 11 10 10 10 9 8 6 6 7 7 8 7 8 8 9 8 9 8 8 8 7 7 7 6 5 4 4 5 6 6 7 8 9 9 9 9 10 8 7 5 3 4 3 3 3 3 3 4 5 4 7 9 9 9 10 10 9 10 11 12 12 13 13
8 8 9 7 6 4 4 4 5 5 5 7 10 12 11 11 10 9 8 8 10 10 9 8 7 8 8 8 7 7 6 4 5 5 5 5 6 6 7 7 7 7 7 6 6 5 4 3 3 4 5 5 6 7 8 8 8 8 7 8 6 5 3 4 3 2 3 3 4 3 4 7 7 9 8 10 11 11 10 10 12 11 12 13 14
8 9 8 7 6 5 5 5 4 4 5 5 5 9 12 11 10 9 8 7 7 8 8 10 10 9 9 9 9 9 8 9 8 7 6 6 6 6 6 5 7 6 5 5 5 4 3 2 3 3 3 4 5 5 5 6 7 7 7 6 5 5 5 3 3 3 3 4 5 5 5 10 8 9 8 10 10 11 10 12 12 11 12 14 13
8 8 9 7 6 6 6 5 4 4 4 5 6 6 10 11 10 9 9 8 9 10 10 10 10 9 9 9 9 7 6 6 7 6 7 6 6 6 6 5 6 5 5 5 4 4 2 2 1 2 2 4 4 5 5 5 6 6 6 6 4 5 3 2 2 3 3 3 3 5 7 11 8 9 10 11 10 10 11 11 12 13 13 13 14
5 8 8 7 6 6 7 6 5 5 5 5 5 6 8 11 8 10 10 10 10 10 10 10 9 8 8 7 7 4 4 3 3 3 4 4 5 5 4 4 4 4 3 4 3 2 1 0 1 1 2 3 5 6 6 6 6 6 6 5 4 3 3 2 2 2 3 3 4 5 10 7 7 8 10 11 9 10 11 11 12 13 13 13 16
8 6 7 7 7 6 8 7 5 5 5 5 4 5 5 7 6 5 5 7 8 9 8 6 6 5 6 5 3 3 3 3 3 3 2 3 4 6 6 6 6 4 1 1 1 0 2 2 3 3 4 6 7 3 4 5 6 6 5 5 4 3 2 2 2 3 3 3 4 6 10 7 8 8 9 9 10 11 11 11 11 12 13 14 17
9 7 7 9 6 6 6 7 6 6 6 5 5 5 6 6 6 6 5 6 6 5 5 6 5 5 4 3 3 2 3 3 3 3 2 4 3 5 6 6 5 6 8 6 5 4 4 4 5 6 6 6 3 2 3 3 3 5 5 4 3 2 2 2 3 3 4 3 4 8 9 8 8 8 9 8 8 9 10 11 11 12 13 15 15
10 9 9 6 6 7 7 7 7 6 6 5 5 5 5 6 6 6 6 5 4 4 4 3 5 4 4 4 4 3 3 2 4 5 4 2 2 3 4 4 3 4 5 4 4 4 6 6 6 6 4 3 3 3 3 3 3 2 2 2 2 2 1 2 3 3 3 4 4 8 9 8 6 8 8 8 9 10 10 11 12 12 13 15 14
7 6 6 7 7 7 7 6 6 7 6 6 7 6 5 5 5 6 6 5 4 3 3 2 3 4 3 3 3 4 3 2 3 2 2 2 1 1 0 0 1 1 2 2 2 3 2 2 3 3 3 3 3 4 3 4 3 2 1 2 2 3 2 4 2 3 3 3 4 7 8 9 7 8 8 7 9 9 10 11 11 12 12 13 13
5 7 8 8 8 7 8 6 6 6 7 7 8 6 7 6 6 6 6 5 6 5 4 2 2 3 2 3 3 3 2 2 2 2 2 2 3 2 2 1 1 2 1 2 2 2 2 1 2 3 4 2 2 4 0 1 3 3 2 2 2 3 4 3 3 3 3 3 3 8 8 9 7 7 6 7 8 8 9 11 11 12 12 12 12
7 7 7 7 8 8 8 7 8 7 7 7 6 7 7 7 7 7 7 6 6 6 5 4 3 3 3 3 4 3 2 3 2 2 3 2 3 3 3 2 3 3 3 2 2 2 2 2 1 3 4 4 3 4 2 2 3 3 3 3 1 3 4 3 2 3 2 3 4 8 8 9 7 5 6 7 8 8 10 10 11 12 12 12 11
7 8 8 8 8 10 9 8 8 8 7 7 7 7 6 6 7 7 7 8 7 6 6 5 5 5 3 4 4 4 4 4 3 3 3 3 4 4 2 3 3 3 3 2 3 4 3 2 2 3 4 4 4 3 2 3 3 3 3 3 3 3 4 4 2 2 2 2 3 6 8 7 7 4 5 7 8 8 9 10 10 10 11 11 11
8 9 8 8 9 9 9 10 8 9 8 8 7 6 6 6 6 7 7 7 8 7 7 6 6 5 5 5 4 5 4 4 5 5 3 5 4 3 3 4 3 4 3 3 3 5 3 3 4 4 4 3 3 1 2 3 1 1 2 3 3 3 5 4 3 1 2 2 2 5 8 7 5 3 2 6 8 9 9 10 9 9 10 10 10
9 8 8 9 8 9 10 11 10 10 8 8 7 7 7 7 6 7 7 7 7 7 6 7 7 7 6 6 6 6 6 6 6 5 5 6 5 4 4 4 4 4 3 5 5 4 6 3 3 3 3 3 3 2 0 2 2 1 1 1 3 3 3 4 3 2 1 1 2 4 7 6 7 5 4 4 8 9 10 10 9 9 10 9 10
8 9 9 8 8 9 10 10 10 9 8 9 8 8 8 8 8 7 7 7 7 7 7 7 7 7 7 8 7 7 7 6 6 6 5 6 5 5 5 4 4 5 4 5 3 5 5 4 5 5 4 4 4 1 0 1 1 3 1 0 1 3 4 4 3 2 1 1 2 3 4 7 7 8 6 3 7 10 9 9 9 9 9 9 10
10 11 8 7 8 10 10 10 10 10 10 10 9 9 9 9 8 7 8 8 7 7 7 7 7 7 7 8 7 7 7 7 7 6 6 6 5 5 5 5 6 5 5 5 5 5 5 5 4 3 4 1 2 1 0 0 1 1 1 1 3 4 5 5 4 3 2 2 2 3 4 3 6 8 10 7 4 8 9 9 9 9 9 10 10
9 9 8 7 10 10 10 10 10 10 11 11 10 9 8 8 9 9 7 8 7 7 8 8 8 7 7 8 8 8 8 7 7 7 7 6 6 6 5 6 6 5 5 5 4 4 3 3 3 2 2 0 0 0 1 1 1 0 0 2 3 4 4 5 5 4 2 2 3 3 3 3 3 6 8 9 6 9 9 9 10 10 10 10 11
9 7 7 10 9 7 8 8 9 11 12 10 9 8 9 9 8 8 8 8 7 7 8 7 8 7 7 7 7 8 8 7 7 7 6 6 6 6 6 6 6 5 5 5 5 4 5 3 5 1 3 2 3 1 1 2 1 0 1 2 3 3 4 4 5 5 3 3 2 3 3 3 3 3 4 8 10 8 8 9 9 10 10 11 11
8 8 10 11 9 9 8 7 9 11 11 10 9 9 8 8 8 8 9 9 8 8 8 7 7 7 6 6 7 7 8 8 8 7 7 6 6 6 6 7 6 5 6 5 5 4 4 5 4 4 2 0 1 1 1 2 1 2 3 3 4 2 3 3 3 4 3 3 3 3 3 4 3 3 3 4 7 9 9 11 11 10 11 11 12
12 11 10 9 10 9 9 9 9 11 11 11 10 9 9 8 7 7 7 9 8 9 8 8 7 7 7 7 8 8 8 8 8 7 7 7 7 7 7 6 5 5 5 4 3 5 5 4 4 4 3 2 0 1 0 2 2 2 2 3 3 4 3 3 4 4 3 4 3 3 2 3 3 3 3 4 4 6 9 9 11 11 12 12 12
11 10 11 9 10 10 10 10 11 12 11 11 10 8 7 8 7 8 8 7 8 8 7 6 6 7 7 8 9 9 9 8 8 7 7 7 7 6 6 6 5 5 5 5 5 5 5 5 4 4 3 4 3 2 1 2 4 3 2 3 4 5 4 4 5 5 4 4 4 3 2 2 2 3 2 3 4 4 7 10 10 12 12 13 13
10 11 11 12 13 11 10 11 10 11 11 11 10 9 8 7 6 6 6 7 8 7 6 6 7 8 8 9 8 8 8 8 7 7 7 6 5 6 6 6 5 5 5 5 6 5 5 5 6 3 3 3 4 4 4 2 2 3 3 4 3 3 5 6 5 4 6 5 4 4 4 3 3 2 2 3 3 4 4 7 10 11 11 12 13
9 11 11 11 10 10 10 11 11 11 10 10 9 8 7 6 5 5 5 6 6 6 6 7 8 7 7 8 7 7 7 7 7 7 7 6 5 5 6 6 5 5 5 5 5 5 5 4 5 3 1 3 5 6 6 4 3 1 2 1 0 0 1 1 2 4 4 5 6 4 3 4 3 2 3 3 3 4 4 4 6 6 7 13 12
9 9 10 10 11 11 10 10 11 11 9 9 8 7 6 7 7 5 5 6 6 7 7 8 6 7 8 8 7 7 6 7 7 6 6 6 5 6 7 6 5 5 6 6 6 6 6 5 5 4 4 2 0 3 3 5 4 4 2 2 2 1 1 1 1 2 3 4 5 4 5 3 3 3 3 2 3 4 5 4 5 5 4 8 12
10 10 11 11 12 13 12 14 10 9 10 9 9 9 9 7 6 9 10 7 8 7 7 6 7 8 8 7 6 6 6 6 6 6 7 6 6 6 6 6 6 6 6 7 7 7 6 6 5 4 5 4 3 1 3 3 5 2 3 2 1 2 0 1 1 1 2 2 3 5 4 4 4 4 4 3 4 4 4 5 4 4 5 5 5
12 11 13 14 13 13 14 13 9 10 11 11 11 10 10 10 10 10 8 8 7 8 8 7 8 7 7 7 6 6 7 6 7 7 8 8 7 7 7 8 7 7 7 6 5 6 5 4 4 3 1 5 5 5 5 5 0 3 3 1 1 1 0 1 1 1 1 1 2 3 4 5 5 4 3 3 3 4 4 5 4 5 4 4 4
14 14 14 12 12 12 13 11 11 12 12 12 11 11 9 9 9 7 9 7 6 7 7 6 6 7 7 6 6 7 7 8 8 8 8 9 9 8 9 8 7 7 6 6 5 6 6 7 7 7 3 1 2 2 5 7 5 3 2 3 2 2 3 1 1 2 2 1 1 3 4 4 5 4 4 4 4 4 4 4 5 5 4 4 3
12 11 13 14 12 13 12 12 12 12 12 12 12 10 10 9 9 7 7 9 7 7 7 6 6 7 8 8 8 8 8 9 9 9 9 9 10 10 8 8 8 7 8 8 7 8 7 6 6 6 6 5 3 5 5 6 5 7 1 4 2 2 4 7 4 3 1 2 1 3 2 4 4 3 2 5 4 4 4 4 5 4 4 3 3
13 14 14 13 12 15 14 13 12 13 11 11 12 9 7 5 4 2 2 3 1 5 5 8 9 8 8 9 10 8 10 10 9 10 9 10 9 9 8 8 8 8 7 8 8 10 9 8 9 8 8 8 7 4 5 6 5 7 7 3 2 1 4 1 2 5 0 2 3 3 3 4 4 4 4 3 2 4 5 4 4 4 3 3 3
14 14 14 15 14 13 13 13 11 11 12 12 12 10 9 10 8 8 9 8 9 9 12 13 10 11 12 7 6 9 10 10 9 10 10 9 10 10 9 9 9 8 8 9 8 6 7 8 9 9 9 7 8 7 6 4 6 7 5 2 4 5 3 2 3 5 1 2 1 2 3 4 3 4 3 3 4 4 4 5 4 4 3 3 3
15 13 13 14 15 14 13 14 13 12 11 11 12 10 10 10 13 13 12 12 12 11 9 7 8 8 6 7 8 8 10 11 11 10 10 10 10 9 10 10 10 9 8 8 8 9 8 9 7 8 9 8 6 8 9 6 3 6 5 2 1 1 4 6 6 1 2 2 1 2 3 2 3 3 4 4 4 5 3 4 5 4 3 3 3
14 12 14 13 14 15 14 15 13 12 11 10 12 13 13 12 12 12 12 12 13 12 8 9 6 6 7 9 8 8 10 11 11 11 11 11 10 10 10 10 11 10 9 9 10 8 6 6 8 10 8 8 9 10 7 6 9 5 5 6 4 1 1 1 3 8 4 2 3 1 2 1 1 3 4 4 4 6 6 3 5 4 3 3 2
13 14 15 14 14 15 15 13 13 13 12 13 13 14 13 13 13 12 12 11 10 9 6 7 7 7 8 7 8 8 9 10 11 11 11 11 10 11 10 11 10 10 8 8 8 8 10 9 8 7 8 8 8 9 7 8 8 8 5 5 3 5 2 0 1 1 3 3 3 4 3 1 1 3 4 4 2 3 5 5 4 4 3 3 3
14 14 14 12 13 12 13 13 14 12 12 14 14 14 15 12 13 13 15 13 9 7 6 7 7 7 10 9 8 8 8 8 10 11 11 11 11 10 11 11 11 10 8 10 9 9 8 9 10 10 9 10 7 7 10 7 8 7 8 7 8 4 2 2 1 2 1 2 5 4 6 6 7 5 3 4 3 2 3 5 5 3 3 4 3
12 13 13 13 13 12 13 15 16 13 12 14 14 16 14 14 14 15 16 15 12 10 9 10 8 7 10 10 9 8 7 9 8 9 11 10 11 11 11 11 10 10 9 9 10 10 9 10 9 9 10 11 9 9 8 7 7 8 8 8 9 10 10 10 9 6 6 5 3 4 3 6 6 2 3 1 2 2 3 3 5 4 4 4 3
Wind_Direction
147 134 144 146 141 136 140 137 128 115 108 104 101 98 92 94 93 77 99 109 110 109 109 104 105 101 95 92 90 89 91 91 89 87 86 90 90 86 83 81 82 83 82 83 81 82 82 80 83 80 79 75 71 69 68 71 78 80 76 76 74 74 74 75 75 72 56 57 64 67 69 70 68 66 60 59 65 63 59 60 42 356 40 50 51
149 136 130 143 140 135 138 139 126 119 116 111 109 106 93 91 96 95 82 111 109 106 99 97 97 95 92 86 85 85 89 91 87 84 81 80 81 85 83 82 80 78 77 81 83 83 83 84 82 81 76 72 69 68 69 73 81 87 82 80 79 76 77 78 76 65 59 53 44 31 51 67 67 66 65 66 66 62 56 53 42 27 51 62 58
126 118 132 139 138 140 137 127 115 126 118 114 108 95 93 89 91 98 97 88 104 112 106 97 92 88 84 87 89 92 93 89 86 83 82 83 86 85 83 84 82 82 82 79 78 79 81 84 79 80 75 72 68 67 72 77 82 90 88 84 81 79 78 74 62 51 39 38 34 28 15 28 68 65 63 63 65 66 63 57 53 43 55 62 67
120 119 127 138 139 140 135 130 130 126 117 113 110 105 107 98 83 86 97 106 92 116 108 104 99 96 92 93 92 92 96 94 90 90 87 85 82 81 84 85 86 86 84 81 78 81 86 86 85 83 75 72 70 69 74 81 86 91 94 91 87 83 80 73 57 45 39 37 33 29 10 2 26 70 66 62 63 69 74 65 58 57 58 65 65
116 122 128 125 132 140 135 132 130 124 119 118 114 119 115 103 88 86 87 90 106 117 109 97 98 103 99 96 100 99 97 96 98 97 97 95 93 93 93 91 89 86 87 88 88 86 86 88 86 82 78 74 74 74 79 83 87 89 93 97 92 88 82 72 59 47 41 37 34 26 15 359 343 66 65 65 63 65 72 65 67 61 58 46 52
127 121 121 121 128 138 141 134 130 124 123 122 120 122 116 110 114 97 88 81 96 115 101 103 99 94 95 99 98 97 97 99 102 100 102 103 100 94 89 89 90 94 95 92 89 89 90 88 86 82 79 78 78 76 78 82 82 83 92 97 95 90 82 72 62 52 39 35 30 21 6 5 4 0 62 59 58 50 57 55 57 62 55 60 41
125 121 117 118 123 138 139 134 129 129 129 127 131 122 115 118 122 118 109 105 84 91 103 92 92 95 97 94 93 93 97 99 102 106 106 110 108 107 102 98 96 94 92 88 88 89 91 91 87 85 83 80 76 77 76 76 78 81 87 95 95 88 79 75 65 54 40 32 20 13 16 15 357 333 49 63 56 53 48 49 51 53 49 37 25
114 114 115 118 126 138 134 132 132 132 132 131 124 120 120 118 114 113 115 115 109 101 100 103 103 98 92 94 93 96 100 99 101 109 110 114 114 109 103 97 94 91 89 90 88 87 86 87 86 85 82 78 75 73 74 75 74 75 81 86 90 87 81 73 64 53 45 17 6 13 16 8 1 358 37 62 59 56 45 35 42 46 40 30 23
117 120 120 125 134 133 130 129 134 134 134 129 128 129 123 121 119 117 120 125 123 122 120 116 106 106 106 105 105 104 103 105 106 109 109 108 103 107 106 101 99 97 93 91 90 88 87 86 85 83 82 76 72 68 69 71 73 75 78 81 82 80 75 67 59 50 35 22 12 3 355 359 357 4 35 51 55 55 48 34 25 29 24 38 28
129 128 134 134 140 136 132 136 137 138 136 138 139 127 125 131 131 135 138 128 119 131 127 120 122 121 119 118 114 109 105 108 103 103 110 109 107 110 110 110 105 102 99 96 94 92 92 90 87 80 72 67 64 66 67 67 69 72 74 81 82 78 74 72 64 51 39 26 15 3 348 17 347 328 40 57 61 58 49 41 51 42 14 44 29
142 143 144 144 149 146 145 143 139 142 147 145 136 132 135 135 139 133 133 133 136 133 125 131 128 117 118 115 118 119 114 105 107 112 117 119 119 111 110 109 108 102 99 93 88 90 89 88 82 77 72 66 63 65 66 67 69 71 74 77 79 79 76 71 64 53 47 33 21 6 346 1 7 295 50 54 61 64 63 47 52 53 41 33 28
146 152 150 151 157 153 152 148 147 143 148 148 143 139 136 139 140 138 148 143 141 140 138 134 124 118 116 112 114 116 118 117 116 112 111 117 117 115 113 111 107 105 99 102 100 89 84 82 79 75 70 66 62 63 63 64 67 65 70 75 79 76 67 59 50 33 31 24 26 7 355 351 345 17 38 55 57 58 64 58 48 41 39 39 32
143 150 151 155 154 162 152 154 147 145 150 151 143 140 144 145 144 150 159 151 141 136 133 126 122 126 124 124 119 116 120 126 125 123 127 122 114 114 111 107 106 105 104 99 93 89 83 79 75 72 67 63 60 62 63 66 67 66 66 72 75 79 73 64 49 42 22 5 12 12 1 344 334 12 42 45 48 51 49 44 41 36 30 28 30
151 149 152 153 159 162 152 154 149 149 151 153 146 146 148 147 148 158 153 132 132 135 137 133 132 139 138 136 135 129 123 130 132 126 123 121 118 117 112 110 108 108 106 99 95 92 86 80 76 71 65 58 58 60 61 62 63 63 64 64 70 82 79 68 55 45 29 9 357 0 6 344 323 14 43 45 50 50 49 44 39 37 33 34 32
156 156 151 151 164 155 155 153 151 149 144 147 148 149 151 151 150 133 131 137 139 134 140 140 141 142 140 146 144 142 141 134 125 128 127 128 126 120 121 119 117 113 106 105 103 97 91 83 79 72 60 54 55 57 60 61 60 61 58 54 67 71 67 53 43 28 19 7 350 357 355 342 340 23 24 40 49 56 49 43 37 38 39 41 43
155 152 150 157 151 148 147 147 141 142 142 145 151 154 147 136 134 142 140 140 143 143 141 139 137 138 145 150 152 153 135 125 128 127 131 133 129 126 127 126 124 117 113 107 102 95 92 89 79 65 55 48 43 40 36 35 29 30 45 39 37 56 70 74 54 26 5 358 348 358 348 333 342 25 31 50 53 55 50 43 43 48 47 47 47
155 155 158 157 150 145 145 134 140 140 138 138 133 131 132 132 136 141 145 144 152 142 140 138 142 148 151 142 118 113 133 136 137 136 137 136 133 134 131 127 124 123 117 114 110 104 99 93 77 50 39 33 30 30 28 25 22 19 33 32 36 62 91 89 64 20 354 359 360 349 336 331 327 29 42 56 56 56 49 49 54 53 50 51 52
163 165 164 157 151 149 138 134 135 131 130 128 136 139 137 137 139 139 147 151 148 138 139 140 127 107 99 95 92 88 83 104 109 99 91 91 97 112 128 132 132 119 111 107 106 107 104 93 64 50 40 32 28 28 23 15 11 6 27 24 29 61 80 66 54 14 358 3 359 343 337 319 0 44 50 57 55 52 49 56 59 54 55 55 57
165 175 170 160 157 148 145 141 136 135 133 129 137 142 138 139 138 138 140 140 128 124 114 107 111 109 97 94 91 84 66 52 53 54 69 69 66 73 81 92 107 109 116 116 117 120 117 98 72 51 39 32 26 24 9 359 353 357 3 27 18 72 71 53 37 11 6 8 356 351 322 327 38 50 53 64 60 55 56 65 62 59 60 62 63
176 171 175 172 158 157 150 145 145 145 140 136 140 142 140 140 141 139 135 126 122 120 119 114 110 108 104 108 109 105 86 68 59 55 45 62 77 84 84 102 125 124 126 126 127 130 132 108 76 51 26 21 13 9 355 340 341 347 352 23 22 83 75 53 46 22 9 7 356 342 331 341 52 55 59 64 63 58 58 65 62 60 61 65 66
181 180 176 170 164 161 155 149 157 152 143 141 141 143 147 140 141 140 137 133 132 130 121 114 111 114 116 113 113 107 108 90 70 64 54 49 49 58 84 107 123 121 126 131 136 137 146 86 13 346 352 24 11 347 347 344 349 349 11 30 51 74 83 63 37 23 22 5 357 340 340 4 50 63 63 59 59 61 61 58 62 60 64 69 68
183 175 185 175 168 170 162 160 158 156 148 143 142 144 146 138 135 134 132 136 135 131 129 132 130 129 124 131 128 126 129 127 123 114 73 81 59 50 46 48 52 31 34 123 114 344 318 309 321 334 343 7 353 353 353 347 357 2 19 43 62 70 56 53 38 37 28 4 357 344 351 20 51 56 65 62 62 63 63 61 62 64 66 69 68
187 186 179 185 179 169 167 166 164 160 150 145 149 149 148 144 141 137 129 132 140 139 142 141 142 146 153 155 146 139 144 148 148 149 138 65 64 47 39 49 34 359 345 349 342 332 320 310 325 338 8 356 351 353 343 345 342 3 23 43 47 76 89 49 49 37 19 354 360 355 5 20 42 54 62 62 64 64 70 71 73 73 70 73 71
189 190 187 187 180 179 175 169 165 163 152 152 150 154 151 151 150 144 143 137 137 145 146 156 147 157 159 155 148 142 144 135 154 160 142 141 77 43 36 24 356 332 327 327 324 325 331 326 333 346 357 354 338 332 353 334 322 340 15 50 54 78 76 72 71 39 21 1 0 9 15 14 44 56 66 72 78 75 76 78 77 75 73 71 72
188 177 186 192 189 183 174 173 166 165 157 155 157 157 150 147 151 153 146 147 136 150 157 166 155 158 160 145 137 134 137 141 150 148 165 179 179 164 182 238 309 291 304 281 307 308 325 323 337 345 341 340 330 310 345 330 300 316 333 54 91 125 114 80 60 56 23 4 10 26 20 15 46 65 73 80 76 80 79 80 81 81 77 75 74
178 188 192 192 191 186 180 172 168 172 166 161 164 158 157 159 161 161 156 152 154 163 166 155 144 154 156 125 114 126 140 150 153 184 194 199 204 204 208 206 225 247 235 255 257 269 279 342 332 327 309 302 269 269 166 222 285 296 280 105 137 130 97 69 67 56 28 8 18 38 27 21 39 58 81 83 86 94 96 95 95 86 82 79 75
189 198 190 194 189 190 185 175 176 173 173 168 164 160 168 165 165 168 161 168 166 153 172 165 165 167 162 152 149 160 167 173 190 212 220 208 214 210 209 211 214 229 229 221 246 235 244 288 313 286 282 294 273 249 213 214 228 242 261 107 112 122 108 98 76 66 33 19 24 47 38 27 25 73 88 107 106 101 98 96 89 89 89 87 79
180 196 195 193 191 193 188 181 183 176 173 173 167 172 172 168 174 169 177 172 163 167 177 177 160 173 179 187 179 172 173 182 204 213 222 211 215 211 209 210 215 226 222 218 254 268 256 240 259 280 275 272 262 243 233 241 215 198 221 106 113 123 109 104 84 72 38 21 20 51 50 30 14 53 115 109 106 103 101 98 93 94 91 85 79
195 197 194 194 197 192 189 189 184 185 177 171 174 176 176 176 170 174 180 176 181 183 180 175 166 172 186 194 183 183 192 192 195 214 194 219 206 199 203 216 214 230 203 234 226 256 264 243 236 249 264 263 279 282 227 238 162 107 245 111 143 165 125 119 110 79 48 21 22 56 57 34 12 12 90 107 112 114 108 100 99 93 86 79 74
203 193 194 200 193 191 194 193 188 185 180 175 179 179 180 181 182 182 181 178 188 188 182 183 180 171 186 195 197 196 194 193 203 202 189 222 209 203 210 226 221 226 199 232 221 227 243 245 251 253 246 243 264 263 215 236 160 121 339 106 171 147 106 128 131 119 82 30 37 57 56 36 357 353 34 81 117 112 110 108 109 106 96 87 76
199 200 199 200 191 189 198 194 191 187 181 184 183 185 179 187 185 187 180 185 188 185 189 190 191 187 186 189 196 198 198 200 198 196 204 217 210 201 220 223 238 236 212 233 214 215 229 225 222 219 211 221 237 241 228 245 165 193 92 202 129 129 122 123 117 118 96 54 43 61 56 40 18 0 355 108 120 117 118 115 110 103 95 86 78
206 210 197 192 190 197 197 195 193 189 187 189 183 187 189 189 187 187 189 190 185 188 191 195 202 198 190 188 191 194 195 199 195 197 201 209 213 208 219 213 230 236 215 227 223 221 218 231 226 211 219 177 205 140 353 89 227 183 106 132 151 145 143 150 142 150 131 79 64 59 68 45 26 14 4 349 104 108 106 106 100 93 86 76 72
216 211 199 184 198 198 196 197 193 192 194 192 190 192 188 189 189 193 190 188 190 191 194 199 203 203 198 193 192 191 192 193 197 197 201 208 209 211 218 219 226 228 219 220 216 225 241 250 249 237 271 189 209 42 41 34 315 318 243 192 142 143 147 148 150 145 146 113 89 82 76 66 38 23 8 12 59 103 99 95 92 86 79 71 64
207 206 197 202 197 197 196 193 194 195 200 197 191 191 194 194 192 190 188 188 192 194 202 201 202 204 201 201 196 195 192 198 190 201 200 207 213 214 216 222 224 222 219 208 208 205 223 221 239 229 261 261 252 307 17 323 21 341 126 175 147 155 145 147 154 163 154 133 113 92 90 73 61 39 17 28 44 70 104 100 90 84 79 72 64
203 205 207 208 198 194 189 195 192 199 199 199 195 199 195 196 195 192 190 189 192 196 199 201 199 200 195 202 202 200 200 197 197 192 200 202 211 219 219 223 217 211 209 211 206 203 204 215 207 217 253 17 340 6 215 230 151 189 158 147 132 121 118 132 129 142 155 146 109 105 91 96 80 61 38 45 43 57 81 91 84 78 74 67 62
204 206 208 204 206 202 190 193 189 199 198 200 199 199 195 195 198 200 197 196 196 199 198 200 196 190 195 200 204 207 204 203 200 196 197 202 208 216 219 220 218 202 213 214 208 215 210 218 216 199 184 257 61 276 122 194 158 180 174 135 141 133 117 120 142 147 156 139 140 133 114 111 104 90 69 63 62 59 62 72 80 77 72 65 59
203 203 204 202 208 205 196 196 191 197 199 201 201 200 194 196 196 195 199 197 202 205 202 197 194 197 201 206 204 205 205 205 204 200 200 203 209 215 223 217 209 201 209 212 206 220 206 214 221 218 177 199 182 197 255 203 139 181 163 155 175 150 161 168 162 159 143 151 161 159 148 148 137 110 84 75 69 61 60 58 64 69 65 61 56
205 203 202 200 205 203 201 202 197 196 196 197 197 198 199 199 199 199 199 202 207 205 199 192 203 205 203 212 209 206 207 206 204 202 207 210 206 209 223 219 203 203 212 209 218 215 214 204 223 219 189 151 184 181 204 209 158 153 164 186 226 194 169 169 163 154 152 157 170 175 185 170 152 150 103 92 87 82 68 64 57 57 60 59 56
205 203 201 203 203 204 201 204 202 196 198 196 196 197 194 199 196 196 202 214 218 214 201 204 211 207 210 213 207 209 209 205 204 203 206 208 208 212 218 220 197 203 209 213 225 221 215 211 214 226 214 196 187 191 183 159 102 76 138 152 10 42 57 81 143 154 167 169 170 177 145 167 157 155 151 121 112 100 88 74 73 62 55 59 56
205 202 202 200 203 203 204 206 205 196 195 196 189 192 187 193 197 200 217 219 215 214 215 217 211 211 217 212 210 209 203 203 204 202 204 205 208 213 218 217 201 195 205 211 221 213 209 207 225 194 186 196 3 165 130 121 66 57 25 29 27 52 64 90 196 202 172 170 167 151 161 153 151 168 171 159 123 107 95 89 82 77 66 57 59
205 202 201 204 203 202 199 210 202 196 193 194 194 190 193 198 207 207 211 205 213 218 222 222 221 221 218 215 210 207 206 202 203 195 203 206 209 212 213 220 203 199 204 213 212 209 204 199 198 182 174 182 227 149 212 124 119 37 21 14 10 22 59 122 207 273 239 210 163 155 151 140 159 167 183 159 129 110 109 103 99 89 75 69 51
214 202 204 207 204 204 205 206 195 199 202 200 195 198 200 198 193 203 203 203 204 210 221 218 223 228 225 214 209 208 208 206 202 198 203 203 206 208 209 213 202 206 210 212 210 203 197 198 171 170 213 185 203 183 192 129 47 170 149 288 335 352 334 134 177 258 278 249 200 166 164 161 169 176 154 141 127 114 120 117 112 97 86 77 71
210 204 206 205 207 207 211 203 200 199 205 202 199 205 200 200 196 197 193 203 208 207 213 211 210 225 226 215 207 206 207 211 207 202 203 205 206 205 211 210 205 199 202 213 207 207 199 198 186 184 190 267 264 233 186 192 179 147 119 104 240 234 276 279 238 242 259 255 304 205 181 167 174 172 166 152 134 124 123 126 115 107 97 86 80
212 211 210 206 206 210 210 204 204 204 204 204 205 205 200 199 204 195 195 194 195 194 201 203 208 213 226 215 211 206 206 212 210 207 209 210 207 209 209 208 210 199 201 204 204 211 202 200 194 200 170 185 206 223 206 207 142 134 230 206 204 161 264 235 204 261 193 241 242 242 198 185 173 167 150 165 153 126 122 125 115 114 108 104 96
208 208 208 207 208 209 208 204 205 206 206 202 202 196 185 189 185 162 153 204 237 190 195 220 212 212 218 217 216 204 210 214 213 212 210 214 211 212 210 211 210 206 201 208 207 208 202 197 191 191 192 191 203 215 222 203 209 200 156 96 17 259 224 264 162 261 200 216 248 221 229 186 179 182 179 188 117 128 131 120 120 113 119 120 104
209 209 206 210 208 207 203 204 207 207 206 201 195 190 192 187 179 190 201 203 214 204 211 214 207 211 217 214 211 208 213 216 216 215 213 213 214 212 211 210 211 207 203 211 212 202 202 199 197 194 201 203 191 199 216 220 211 224 213 168 158 177 174 236 112 268 359 233 286 231 227 212 189 181 186 163 154 136 142 132 129 128 130 125 116
215 207 208 211 210 208 202 201 203 205 203 198 188 190 195 198 199 202 204 207 215 222 221 221 217 220 212 210 211 210 213 215 218 216 214 212 215 213 212 214 214 211 204 207 211 207 204 203 193 198 203 197 186 204 208 204 209 249 238 238 47 58 150 132 211 61 312 293 248 239 244 211 196 187 188 194 171 142 146 138 134 132 134 132 120
211 203 211 209 205 208 205 203 202 201 197 191 189 193 198 200 204 211 212 215 215 222 206 217 213 200 204 213 208 213 212 216 218 218 216 213 211 214 211 214 215 214 201 209 212 210 206 206 199 203 202 198 197 208 208 193 193 217 201 227 224 99 114 58 151 178 169 186 269 307 311 274 190 218 204 191 181 163 148 142 134 132 134 129 123
207 208 212 206 205 208 208 205 203 198 195 190 192 196 200 200 205 208 217 222 221 224 208 205 206 197 215 211 211 215 214 217 220 220 218 216 210 213 212 216 216 215 206 215 216 208 207 202 199 202 208 211 207 212 202 203 199 212 174 233 205 220 213 317 33 106 152 177 269 199 242 12 306 266 230 214 209 171 157 149 142 142 140 137 131
212 212 213 207 207 205 205 202 206 201 197 193 193 196 200 200 206 211 216 220 214 219 200 210 206 196 218 215 214 215 214 217 219 221 221 217 215 213 216 217 217 214 207 215 213 213 211 210 207 205 206 210 209 208 212 207 203 206 195 191 197 192 178 229 218 170 343 175 206 207 200 185 213 240 192 202 198 142 134 136 134 140 139 141 138
214 211 213 209 206 202 201 203 207 200 194 196 193 198 198 201 211 212 215 218 212 210 212 219 207 205 219 219 214 218 214 219 214 220 220 217 217 214 216 219 217 214 211 212 213 211 209 209 209 207 208 209 207 208 214 216 202 206 206 195 202 196 201 205 204 189 189 203 205 250 202 200 206 221 246 154 117 109 135 141 148 152 156 146 144